Regional Weather Roundup
Issued by NWS Newport/Morehead, NC

Current Version | Previous Version | Graphics & Text | Print | Product List | Glossary Off
Versions: 1 2 3 4 5 6 7 8 9 10 11 12 13 14 15 16 17 18 19 20 21 22 23 24 25 26 27 28 29 30 31 32 33 34 35 36 37 38 39 40 41 42 43 44 45 46 47 48 49 50

000
ASUS42 KMHX 260822
RWRMHX
WEATHER ROUNDUP FOR EASTERN NORTH CAROLINA
NATIONAL WEATHER SERVICE NEWPORT/MOREHEAD CITY NC
400 AM EDT SAT JUL 26 2014

NOTE: "FAIR" INDICATES FEW OR NO CLOUDS BELOW 12,000 FEET
WITH NO SIGNIFICANT WEATHER AND/OR OBSTRUCTIONS TO VISIBILITY

NCZ015>017-031-032-045>047-102-103-260900-
NORTH COAST

CITY           SKY/WX    TMP DP  RH WIND       PRES   REMARKS
EDENTON        CLEAR     67  65  92 CALM      30.01S
ELIZABETH CITY PTCLDY    68  64  87 CALM      30.01F
KITTY HAWK     PTSUNNY   72  62  71 CALM      30.00S
MANTEO         NOT AVBL

$$

NCZ045>047-081-094-103-104-260900-
CENTRAL COAST

CITY           SKY/WX    TMP DP  RH WIND       PRES   REMARKS
FRISCO         CLEAR     75  72  90 NE6       29.99F
SWANQUARTER      N/A     70 N/A N/A E2        29.97S

$$

NCZ095-097-098-100-101-260900-
SOUTHERN COAST

CITY           SKY/WX    TMP DP  RH WIND       PRES   REMARKS
BEAUFORT       MOCLDY    75  73  93 NE3       29.99S
CEDAR ISLAND     N/A     77 N/A N/A E8        30.03S
JACKSONVILLE   CLEAR     74  72  93 E3        29.99S
NEWPORT        NOT AVBL
PINEY ISLAND   SUNNY     79  75  87 E6        29.99S
WILMINGTON     PTCLDY    74  72  93 CALM      29.99S


$$

NCZ011>013-027>030-043-044-078>080-089-090>093-098-260900-
COASTAL PLAIN

CITY           SKY/WX    TMP DP  RH WIND       PRES   REMARKS
AHOSKIE        CLEAR     66  64  93 CALM      30.03R
CLINTON        PTCLDY    71  71 100 CALM      30.00S FOG
ELIZABETHTOWN  CLOUDY    73  73 100 CALM      30.00S
GOLDSBORO      CLOUDY    72  71  99 CALM      29.99S
GREENVILLE     CLEAR     70  70 100 CALM      30.03S FOG
HAVELOCK       CLEAR     73  70  90 CALM      30.00F
KENANSVILLE    CLOUDY    70  69  96 CALM      30.01S FOG
KINSTON        MOCLDY    72  71  97 CALM      30.01S
NEW BERN       CLEAR     75  71  87 CALM      30.00F
RICHLANDS      CLOUDY    73  70  88 CALM      30.00R
ROANOKE RAPIDS NOT AVBL
ROCKY MOUNT    FOG       70  69  97 CALM      30.01S VSB 1/2
WASHINGTON     CLEAR     68  66  95 CALM      30.01S
WHITEVILLE     CLOUDY    74  73  95 CALM      29.99F FOG

$$

AMZ130-135-150-152-154-156-158-170-250-252-270-ANZ085-086-088-633-658-670-260900-
MARINE OBSERVATIONS

STATION/POSITION TIME  TEMP    WIND        PRES    WAVE   SWELL
                       AIR SEA DIR/SP/G            HT/PER HT/PER
                 (UTC) (F)     (DEG/KT/KT) (MB)    (FT/S) (FT/S)
CHESAPEAKE LIGHT NOT AVBL
BUOY 44014       0800   76 78  170/  6/  8 1016.2    2/ 7   2/ 7
DUCK             0800   76 76  120/  7/  8 1015.5
2E DUCK          0800                        N/A     2/ 7
OREGON INLET     0800   73 79  110/  3/  5 1016.1
BUOY 44095       0800      77                N/A     3/ 7
20E OREGON INLET NOT AVBL
HATTERAS CG      0800   76 81   70/  5/  6 1015.8
DIAMOND BUOY     0800          VRB  6/  8  1015.3    3/ 6   3/ 6
CAPE LOOKOUT     0800   79      50/  2/  2 1015.4
BEAUFORT LAB     0800   77 81   60/  2/  2 1015.1
30 SE NEW RIVER  0800   80 81  220/  6/  6 1015.6    3/ 6   2/ 6
5 SE WRIGHTSVILL 0800   77 81  230/  4/  6   N/A
BUOY 41002       0749   81 82  260/ 10/ 16 1017.8    4/ 7   3/ 7
BUOY 41004       0800   81 83  200/ 10/ 12 1014.8    3/ 5   3/ 5

$$


USA.gov is the U.S. government's official web portal to all federal, state and local government web resources and services.